loading
DOY 205 | 2024-07-23T02:16:39Z

OPS 4682 DEB, 1316

Orbit data source: Space-Track

OPS 4682 DEB, 1316 is space debris in LEO originally from a launch on Sat, 03 Apr 1965 UTC launched from the Air Force Western Test Range (AFWTR). Debris objects in space refer to the collection of defunct objects orbiting the Earth. Examples of debris include non-operational satellites, rocket bodies, and fragments generated from explosions, collisions, or faulty payload assembly.

Loading next visibility...
Loading greatness...
OPS 4682 DEB details
NORAD ID1316
COSPAR ID
1965-027C
Orbit
LEO
Last TLE update16 hours ago
Origin
Flag of USUSAF SSD (US)
ManufacturerUnknown
BusUnknown
MotorUnknown
Mass7 kg wet, 7 kg dry
Launch date (UTC)
1965-04-03 (59 years ago)
Launch vehicleUnknown
Launch site
Air Force Western Test Range (AFWTR)
Object type
Payload
Rocket body
Debris
Radar Cross Section0.89 m², Medium (>0.1 m² and < 1m²)
Predictive object data (real-time)
Latitude-24.40696°
Longitude89.41742°
Altitude1,189.221 km
Speed7.259 km/s
Apparent Right ascension09h 42m 10s
Apparent Declination-58° 20' 12"
Sunlit
Object is in daylight
Predictive observer data (real-time)
Local Sidereal Time15:21:27
Azimuth217.422° SW
Elevation-30.65°
Doppler factor1
Orbital elements
Apogee1,200.757 km
Perigee1,156.288 km
Semi-major axis7,556.659 km
Eccentricity0.0029424
Inclination90.2458°
RAAN10.6824°
Arg. of periapsis292.7066°
True anomaly67.40683°
Mean anomaly67.0958°
Mean motion3.30406 °/min
BSTAR0.0032233
Period108.96 mins
Definitive object data (Epoch: 2024-07-22T10:41:57.8Z)
Latitude-0.00008°
Longitude-90.48689°
Altitude1,175.738 km
Speed7.27 km/s
True Right ascension00h 42m 43s
True Declination0° 00' 00"
Sunlit
Object was in daylight at TLE epoch
TLE from 16 hours ago
0 OPS 4682 DEB
1 01316U 65027C   24204.44580788  .00001323  00000-0  32233-2 0  9991
2 01316  90.2458  10.6824 0029424 292.7066  67.0958 13.20861881827229
Epoch: 2024-07-22T10:41Z
No data available

OPS 4682 DEB Visibility forecast

Observer location: 39.9160978°, -105.1181434

OPS 4682 DEB is not visible in the next 10 days
Span
Click to sort rows by Start time (UTC) header in descending order
Start Az.
Max El. time (UTC)
Max El. Az.
Max El.
End time (UTC)
End Az.